EHI
21 21 20 18 15 15 14 14 11 6 3 3 2 1 0 0 1 1 1 0 0 0 0 0 0 1 2 2 1 0 0 0 0 0 0 0 0 0 1 2 3 4 4
24 24 22 20 18 19 19 18 14 8 3 2 2 1 0 0 0 0 0 1 1 1 1 1 0 0 1 1 0 0 0 0 0 0 0 0 0 0 0 1 2 4 4
31 30 28 25 24 24 24 23 17 10 5 4 3 2 1 0 0 0 0 2 3 3 2 2 1 0 0 0 0 0 1 1 0 0 0 0 0 0 0 0 1 1 2
37 35 32 31 29 29 27 24 20 13 9 6 5 4 3 1 0 0 0 1 3 3 3 3 2 1 1 1 1 1 1 1 1 0 0 0 0 0 0 0 0 0 0
39 35 33 32 31 31 29 26 22 17 11 8 6 5 4 3 1 0 0 0 1 3 3 3 3 3 2 2 3 2 1 0 0 0 0 0 0 0 0 0 0 0 0
37 34 30 30 30 31 29 26 23 20 14 9 7 5 4 4 3 1 0 0 1 2 3 3 3 4 3 3 3 2 1 0 0 0 0 0 0 0 0 0 0 0 0
34 31 28 28 30 30 28 25 23 22 18 13 9 6 5 6 5 2 0 1 1 3 3 3 4 5 5 3 3 3 2 1 0 0 0 0 0 0 0 0 0 0 0
30 29 27 27 29 28 27 25 24 23 21 17 12 9 9 9 8 4 2 2 3 3 3 3 4 6 6 4 4 4 3 1 0 0 0 0 0 0 0 0 0 0 0
27 27 28 28 29 29 29 28 26 24 23 20 16 13 14 13 11 6 4 3 3 3 3 4 5 6 6 5 4 3 2 1 0 0 0 0 0 0 0 0 0 0 1
25 25 27 29 30 30 31 32 30 27 25 23 19 17 17 16 13 10 7 5 4 4 6 6 6 5 5 3 2 1 1 0 0 0 0 0 0 0 0 0 0 0 1
23 23 25 28 29 28 30 32 31 28 25 23 20 19 18 16 15 12 9 7 6 7 8 8 6 4 2 1 1 0 1 1 0 0 0 0 0 0 0 0 0 0 1
22 21 22 25 25 23 24 27 28 27 25 22 19 19 18 16 15 12 9 7 7 7 8 6 4 3 2 1 1 1 2 2 1 1 0 0 0 0 0 0 0 0 0
24 21 21 24 23 20 22 24 25 25 25 22 19 17 16 14 13 11 8 7 7 7 6 5 3 3 3 3 2 3 3 3 3 2 1 1 1 1 1 0 0 0 0
26 23 21 22 22 21 22 24 25 24 24 23 20 17 15 12 12 11 9 8 7 6 6 4 3 3 3 3 3 3 3 3 3 3 3 2 2 2 1 0 0 0 0
27 25 21 19 19 21 22 23 23 23 23 23 21 18 15 13 13 13 12 10 8 7 6 4 3 3 3 3 3 3 3 3 3 3 3 3 3 3 1 0 0 0 1
28 25 21 18 17 20 20 20 21 22 22 21 19 17 14 13 13 13 13 12 11 9 6 4 3 3 3 3 3 2 3 3 3 3 3 3 3 3 1 1 0 0 1
27 24 20 16 16 18 19 18 19 21 21 18 16 15 14 12 12 12 13 15 14 11 8 5 4 3 3 2 1 1 1 2 2 2 1 1 3 3 2 1 1 1 1
22 21 18 16 15 17 18 17 18 18 18 16 14 14 14 13 11 10 13 15 14 11 10 7 5 3 2 1 0 0 0 0 0 0 0 1 2 2 1 1 1 2 2
17 17 18 18 17 17 18 17 16 15 14 13 13 14 15 15 13 11 12 13 12 10 9 9 7 5 2 0 0 0 0 0 0 0 0 0 1 1 0 0 1 1 1
15 17 19 20 19 19 18 17 14 12 11 11 12 14 15 15 14 13 13 12 11 10 10 9 9 7 4 2 0 0 0 0 0 1 0 0 0 0 0 0 0 0 0
15 17 19 18 19 20 19 16 13 11 10 11 12 12 13 13 13 13 13 12 11 11 11 11 10 8 6 3 1 0 0 0 0 0 0 0 0 0 0 0 0 0 0
14 16 17 16 17 19 19 17 14 11 11 11 11 10 9 10 11 12 12 11 11 11 11 11 11 9 7 4 1 0 0 0 0 0 0 0 0 0 0 0 0 0 0
11 13 15 15 15 17 18 18 15 14 14 13 12 10 8 7 8 8 9 10 11 11 10 10 11 10 9 6 3 1 0 0 0 1 0 0 0 0 0 0 0 0 0
9 10 12 13 14 15 16 17 17 16 16 15 13 11 8 6 5 5 5 7 9 10 10 10 10 11 10 8 5 3 2 1 1 1 1 1 0 0 0 0 0 0 0
8 9 10 11 12 13 14 15 17 17 16 16 14 11 7 5 3 3 3 4 6 8 9 9 10 10 10 8 5 4 4 2 1 2 3 2 1 1 1 0 0 0 0
8 8 9 10 11 12 12 14 16 17 16 16 14 9 6 4 3 3 3 2 3 5 7 8 9 9 8 6 3 3 4 3 2 2 4 3 2 2 2 1 0 0 0
Wind_Speed
7 8 8 8 8 6 6 6 5 4 3 2 2 2 1 1 1 1 2 2 1 1 1 1 1 1 1 1 1 1 0 0 0 1 2 2 1 1 1 2 2 3 3
6 8 8 8 8 8 7 6 5 5 4 3 2 2 2 1 2 1 1 1 1 1 1 1 1 1 1 1 0 1 0 1 1 2 1 2 3 2 1 1 1 2 2
10 9 8 7 7 7 7 7 5 5 4 3 2 1 1 1 0 1 1 1 1 1 1 1 1 0 1 1 2 1 2 2 1 1 3 2 2 2 2 1 1 1 1
8 8 8 8 8 7 6 6 5 5 4 4 3 3 3 2 2 2 1 1 1 2 2 1 1 1 1 1 2 2 2 2 1 1 1 2 3 2 1 2 2 1 1
9 9 10 9 8 7 6 6 5 4 3 4 4 4 3 2 1 1 1 1 1 2 2 1 1 1 1 1 1 1 1 2 2 2 1 1 1 2 2 2 2 2 2
9 8 8 7 6 6 6 5 5 5 4 4 4 4 4 3 2 1 1 1 1 1 2 2 2 2 2 2 2 1 1 2 2 1 1 2 2 2 2 2 2 2 2
9 8 8 8 8 8 7 6 6 5 5 4 4 4 4 3 3 3 3 2 1 2 2 2 2 2 2 2 2 1 1 1 1 2 2 2 2 2 2 2 2 1 2
8 9 10 10 10 9 8 7 6 5 5 5 5 4 4 3 2 3 2 3 2 2 2 1 2 2 2 2 1 1 2 1 1 2 2 1 1 2 2 3 2 1 2
8 7 7 8 8 8 8 8 7 5 5 5 4 4 4 3 3 2 2 2 2 2 1 1 1 1 1 1 1 1 2 1 1 2 2 1 1 1 2 2 3 3 2
6 6 6 6 6 6 6 5 5 5 4 5 5 4 4 3 3 2 2 2 2 2 1 1 1 1 1 1 1 1 2 1 2 2 1 1 2 1 1 1 1 2 3
6 6 5 5 5 5 5 5 5 4 4 5 4 4 3 3 3 3 3 2 2 1 2 2 2 1 2 1 1 1 1 1 2 2 1 2 2 1 1 1 1 1 2
6 5 5 5 4 4 4 4 4 4 4 5 4 4 3 3 3 3 3 2 2 1 1 1 1 2 2 1 1 1 1 1 2 2 2 2 2 1 1 1 1 1 2
5 5 4 4 4 4 4 4 4 4 4 4 4 4 3 3 3 3 2 2 2 1 1 1 1 2 2 1 1 2 2 2 2 2 2 2 2 2 2 2 1 1 1
5 5 4 3 4 3 3 3 3 3 3 4 4 4 4 4 4 3 2 2 2 2 2 2 2 2 2 2 2 2 2 2 3 3 3 3 3 3 3 2 2 2 1
5 5 4 4 3 3 3 3 3 3 3 3 4 4 4 3 3 2 2 2 2 2 2 2 2 2 2 2 2 2 2 2 3 3 3 3 3 3 3 2 3 3 2
5 5 4 4 4 4 3 3 2 2 3 3 3 2 2 2 2 2 2 2 2 2 1 2 2 2 2 2 2 2 2 2 2 2 3 3 2 2 3 3 4 5 5
5 5 4 4 4 4 3 3 3 2 2 2 2 2 3 2 2 2 2 2 2 2 1 2 2 2 3 2 2 2 1 1 2 2 2 2 2 2 1 2 2 3 5
3 3 4 3 3 3 2 2 2 2 3 2 1 2 2 2 1 1 1 2 1 2 2 2 2 2 2 2 2 2 1 1 2 2 2 2 2 2 1 1 1 1 2
4 3 3 3 3 3 2 3 3 2 2 2 2 1 2 2 2 1 2 2 1 1 2 2 2 2 3 2 2 1 0 0 1 2 1 1 1 2 1 1 0 1 2
3 3 3 3 3 2 3 3 3 3 3 2 2 2 2 2 3 3 2 1 1 1 1 2 2 2 2 2 2 2 1 1 1 1 2 2 1 2 1 1 2 1 2
2 3 4 3 2 2 3 3 2 3 3 2 1 1 1 3 3 2 2 1 1 1 1 2 2 2 3 2 2 3 2 1 1 1 1 2 3 1 1 1 2 3 1
3 4 4 2 1 2 3 2 2 2 1 2 1 1 1 2 1 1 1 1 1 0 1 2 2 2 2 2 1 2 3 2 2 2 1 2 2 1 1 1 1 0 1
2 3 4 3 1 1 3 3 2 2 2 2 1 1 1 1 1 2 1 1 1 1 1 1 1 2 2 2 2 2 2 2 1 1 1 1 1 1 1 1 0 1 1
2 2 3 2 1 1 1 2 2 2 3 2 1 0 0 1 1 1 1 1 2 2 1 1 2 2 2 2 1 1 1 1 1 1 1 1 1 1 0 1 0 0 1
2 2 3 3 2 2 1 2 2 3 3 2 1 0 0 1 1 1 1 2 3 4 4 3 3 2 2 3 3 1 1 1 1 0 1 1 1 1 1 1 0 0 0
2 1 1 2 2 2 2 2 2 3 3 2 1 1 1 0 1 1 1 2 1 2 3 4 4 3 4 3 2 2 2 2 3 3 1 0 1 1 1 1 1 1 1
Wind_Direction
168 157 155 154 150 152 153 157 154 165 154 140 142 147 172 177 173 193 193 174 176 179 168 233 257 228 192 219 210 161 183 288 109 56 348 335 314 257 230 213 206 215 217
163 163 161 159 162 166 168 165 169 171 170 168 167 169 163 172 183 207 210 184 191 212 207 208 231 225 198 267 247 148 145 268 158 135 74 344 341 331 289 247 222 233 222
169 168 167 167 166 170 172 169 173 173 173 165 142 123 78 49 41 277 273 242 207 225 236 223 196 189 186 219 229 192 185 223 258 166 152 165 235 303 322 302 275 259 230
168 167 166 168 171 176 171 164 168 167 169 161 158 161 166 189 217 217 224 245 221 223 225 222 183 200 197 216 236 210 198 190 241 260 203 186 173 167 304 322 310 293 251
171 176 176 175 171 165 165 166 165 168 170 169 169 166 181 197 208 203 220 251 261 241 219 216 215 215 216 219 238 244 221 203 207 215 224 215 187 170 171 270 303 319 294
171 175 174 164 163 164 165 166 168 181 179 175 175 171 175 174 171 203 220 254 264 265 249 219 221 225 219 223 233 236 226 221 215 212 202 188 186 199 182 217 250 271 281
166 166 165 165 168 171 174 174 174 185 186 183 186 183 183 178 187 200 206 218 246 258 259 242 228 233 236 231 217 221 236 230 222 223 225 213 213 192 178 180 225 258 283
168 170 174 174 176 178 178 178 183 190 186 184 190 188 184 184 192 197 202 211 222 233 239 223 224 232 238 241 224 225 236 227 224 238 231 217 222 191 181 179 174 220 301
163 169 173 173 176 178 181 183 185 188 188 187 185 185 186 186 191 195 200 218 233 237 221 202 218 240 245 243 224 237 248 239 224 227 232 232 239 221 209 187 174 173 215
154 156 157 159 170 174 175 175 177 187 191 186 187 186 190 190 190 185 203 218 231 234 211 220 228 248 255 248 230 245 249 237 245 228 226 243 246 234 217 194 193 183 185
160 154 149 155 162 166 170 173 177 180 186 189 191 191 192 195 193 201 215 219 222 219 216 219 222 238 252 243 216 243 235 240 255 255 230 244 239 233 227 186 178 185 174
151 148 147 145 147 152 165 176 179 180 190 187 183 188 188 187 197 212 225 219 213 213 215 217 232 240 251 247 216 242 257 241 250 254 253 259 245 239 232 183 190 204 195
125 135 140 149 161 163 165 173 178 181 186 178 175 181 185 184 193 204 214 208 203 218 220 206 223 243 255 247 240 236 244 245 251 246 243 256 237 238 225 195 194 208 210
132 136 145 163 173 173 172 175 183 185 178 175 173 184 194 195 195 195 194 192 194 196 209 214 222 223 230 237 248 254 253 253 257 252 246 247 230 222 214 212 202 181 173
131 141 156 175 179 171 171 177 186 191 182 175 179 193 199 193 184 187 193 201 207 211 209 216 242 241 231 244 249 250 258 254 266 272 260 254 248 226 218 217 194 173 177
157 154 164 168 171 172 176 176 184 186 166 164 178 177 171 178 183 196 198 201 214 225 225 228 234 251 265 278 257 243 251 254 261 271 275 275 273 252 236 223 208 186 189
167 162 167 173 176 179 174 176 183 170 153 153 169 164 161 165 176 196 201 211 217 225 255 253 240 257 273 294 288 276 229 234 250 258 265 284 286 269 246 239 239 233 228
163 164 154 158 169 163 156 161 153 154 157 157 155 164 167 170 172 163 211 229 224 227 240 251 240 248 272 280 286 285 243 240 252 253 249 256 279 278 229 198 232 252 246
165 159 155 148 141 148 151 131 139 141 146 162 178 183 180 180 185 200 227 228 233 251 247 247 238 240 264 264 258 241 208 250 279 279 275 260 255 272 234 164 232 297 295
143 135 124 105 108 136 131 123 141 148 173 194 203 199 187 185 192 204 218 227 219 254 266 267 254 244 258 267 238 192 182 220 284 310 310 301 283 278 237 178 183 235 281
132 124 119 122 136 126 116 123 145 184 199 193 186 197 214 202 193 200 211 211 208 262 286 274 269 261 263 270 223 187 179 201 237 275 294 306 316 307 266 200 197 219 242
110 114 109 107 130 137 129 138 189 211 175 153 154 218 257 231 193 186 219 215 190 217 294 299 293 288 283 267 232 189 192 192 195 240 269 294 306 316 313 269 246 164 82
134 133 133 137 154 143 145 165 203 171 143 131 160 241 309 306 229 197 212 228 215 206 250 273 282 295 298 293 264 213 216 204 197 232 258 297 303 301 308 303 346 94 98
147 143 142 146 159 169 164 189 191 160 144 151 190 204 24 338 325 261 215 208 212 209 222 238 250 269 285 294 294 270 239 240 247 281 301 328 21 44 329 325 4 128 157
165 158 160 174 187 195 210 217 187 161 159 170 179 205 216 277 305 293 254 226 223 205 200 216 218 219 250 260 244 203 207 217 229 145 53 45 27 10 336 325 302 221 165
160 159 166 174 188 194 219 234 197 167 162 175 194 196 198 229 252 274 326 329 276 254 233 223 214 230 233 241 221 205 204 182 147 122 115 182 237 249 253 245 247 226 219